QPF
0.00 0.00 0.00 0.00 0.01 0.01 0.02 0.02 0.01 0.02 0.02 0.02 0.03 0.03 0.02 0.02 0.02 0.03 0.04 0.03 0.02 0.03 0.06 0.08 0.08 0.07 0.06 0.04 0.03 0.03 0.04 0.03 0.04 0.03 0.03 0.03 0.02 0.02 0.02 0.02 0.02 0.02 0.02
0.01 0.01 0.01 0.01 0.02 0.02 0.03 0.03 0.02 0.03 0.03 0.03 0.03 0.03 0.04 0.05 0.04 0.03 0.04 0.05 0.04 0.05 0.06 0.07 0.08 0.08 0.06 0.06 0.05 0.05 0.05 0.05 0.04 0.03 0.02 0.02 0.02 0.02 0.02 0.02 0.02 0.02 0.02
0.02 0.01 0.02 0.02 0.03 0.05 0.05 0.05 0.04 0.05 0.04 0.02 0.03 0.05 0.06 0.05 0.05 0.06 0.07 0.05 0.04 0.05 0.04 0.04 0.06 0.06 0.06 0.05 0.05 0.05 0.06 0.06 0.05 0.03 0.03 0.03 0.02 0.02 0.02 0.01 0.01 0.01 0.01
0.02 0.02 0.03 0.05 0.08 0.09 0.08 0.06 0.05 0.05 0.04 0.03 0.03 0.04 0.04 0.03 0.04 0.04 0.04 0.04 0.04 0.03 0.03 0.03 0.04 0.05 0.05 0.05 0.05 0.06 0.05 0.05 0.04 0.04 0.04 0.03 0.02 0.02 0.02 0.02 0.02 0.02 0.02
0.03 0.05 0.06 0.09 0.11 0.11 0.09 0.08 0.07 0.05 0.04 0.03 0.04 0.04 0.03 0.04 0.04 0.03 0.03 0.03 0.03 0.02 0.02 0.03 0.04 0.04 0.04 0.04 0.04 0.04 0.04 0.03 0.03 0.03 0.03 0.02 0.02 0.01 0.01 0.01 0.01 0.02 0.02
0.11 0.13 0.14 0.17 0.15 0.12 0.12 0.10 0.07 0.06 0.05 0.04 0.04 0.03 0.03 0.03 0.02 0.03 0.03 0.02 0.02 0.01 0.01 0.01 0.02 0.03 0.03 0.03 0.03 0.03 0.03 0.02 0.02 0.02 0.02 0.02 0.02 0.02 0.02 0.01 0.01 0.01 0.01
0.21 0.24 0.24 0.23 0.20 0.17 0.15 0.11 0.08 0.07 0.06 0.05 0.04 0.03 0.02 0.01 0.01 0.01 0.01 0.01 0.01 0.01 0.01 0.01 0.01 0.01 0.02 0.02 0.02 0.02 0.01 0.02 0.03 0.03 0.03 0.03 0.03 0.02 0.02 0.02 0.02 0.02 0.01
0.36 0.33 0.31 0.30 0.27 0.23 0.20 0.17 0.13 0.10 0.09 0.07 0.05 0.04 0.02 0.01 0.01 0.01 0.01 0.01 0.01 0.00 0.00 0.00 0.00 0.00 0.00 0.01 0.01 0.01 0.02 0.02 0.03 0.03 0.03 0.03 0.02 0.01 0.01 0.01 0.01 0.01 0.01
0.42 0.39 0.36 0.33 0.31 0.29 0.27 0.24 0.19 0.14 0.11 0.09 0.06 0.04 0.03 0.02 0.01 0.01 0.01 0.01 0.01 0.00 0.00 0.00 0.00 0.00 0.00 0.00 0.00 0.01 0.02 0.02 0.02 0.02 0.03 0.03 0.03 0.02 0.01 0.01 0.01 0.01 0.01
0.39 0.37 0.34 0.32 0.32 0.30 0.26 0.23 0.21 0.18 0.13 0.10 0.07 0.04 0.03 0.02 0.02 0.02 0.01 0.01 0.00 0.00 0.00 0.00 0.00 0.00 0.00 0.00 0.00 0.00 0.01 0.01 0.01 0.01 0.02 0.02 0.02 0.02 0.02 0.02 0.01 0.01 0.01
0.37 0.34 0.32 0.30 0.26 0.22 0.19 0.16 0.14 0.13 0.11 0.09 0.06 0.04 0.03 0.02 0.01 0.01 0.01 0.01 0.01 0.01 0.00 0.00 0.00 0.00 0.00 0.00 0.00 0.01 0.01 0.01 0.01 0.01 0.02 0.02 0.02 0.03 0.03 0.03 0.03 0.02 0.02
0.36 0.30 0.25 0.23 0.20 0.18 0.15 0.14 0.12 0.10 0.08 0.07 0.06 0.05 0.03 0.03 0.02 0.02 0.02 0.02 0.01 0.01 0.01 0.00 0.00 0.00 0.00 0.00 0.01 0.01 0.01 0.01 0.01 0.01 0.01 0.02 0.02 0.02 0.03 0.03 0.03 0.03 0.03
0.30 0.27 0.23 0.21 0.18 0.16 0.16 0.16 0.14 0.12 0.09 0.08 0.07 0.06 0.05 0.04 0.03 0.03 0.03 0.02 0.02 0.02 0.01 0.01 0.00 0.00 0.00 0.00 0.00 0.01 0.01 0.01 0.01 0.01 0.01 0.01 0.01 0.01 0.01 0.01 0.01 0.01 0.01
0.20 0.16 0.13 0.12 0.12 0.12 0.13 0.15 0.15 0.13 0.11 0.09 0.08 0.07 0.06 0.05 0.03 0.02 0.02 0.01 0.01 0.01 0.01 0.01 0.00 0.00 0.00 0.00 0.00 0.00 0.00 0.00 0.00 0.00 0.00 0.00 0.00 0.00 0.00 0.00 0.01 0.01 0.01
0.14 0.10 0.07 0.08 0.08 0.08 0.08 0.08 0.08 0.09 0.08 0.07 0.07 0.06 0.04 0.03 0.02 0.01 0.01 0.01 0.02 0.02 0.01 0.01 0.01 0.01 0.00 0.00 0.00 0.00 0.00 0.00 0.00 0.00 0.00 0.00 0.00 0.00 0.00 0.00 0.00 0.00 0.01
0.09 0.08 0.08 0.08 0.08 0.08 0.08 0.08 0.08 0.09 0.08 0.06 0.05 0.03 0.02 0.01 0.01 0.00 0.00 0.00 0.00 0.00 0.00 0.00 0.00 0.00 0.00 0.00 0.00 0.00 0.00 0.00 0.00 0.00 0.00 0.00 0.00 0.00 0.00 0.00 0.00 0.01 0.01
0.07 0.07 0.07 0.08 0.08 0.08 0.08 0.08 0.07 0.06 0.04 0.03 0.03 0.02 0.01 0.01 0.00 0.00 0.00 0.00 0.00 0.00 0.00 0.00 0.00 0.00 0.00 0.00 0.00 0.00 0.00 0.00 0.00 0.00 0.00 0.00 0.00 0.00 0.00 0.00 0.00 0.01 0.01
0.04 0.04 0.04 0.04 0.04 0.04 0.03 0.02 0.02 0.02 0.01 0.01 0.01 0.01 0.01 0.00 0.00 0.00 0.00 0.00 0.00 0.00 0.00 0.00 0.00 0.00 0.00 0.00 0.00 0.00 0.00 0.00 0.00 0.00 0.00 0.00 0.00 0.00 0.00 0.00 0.00 0.00 0.00
0.01 0.01 0.01 0.01 0.01 0.01 0.01 0.01 0.01 0.00 0.00 0.00 0.00 0.00 0.00 0.00 0.00 0.00 0.00 0.00 0.00 0.00 0.00 0.00 0.00 0.00 0.00 0.00 0.00 0.00 0.00 0.00 0.00 0.00 0.00 0.00 0.00 0.00 0.00 0.00 0.00 0.00 0.00
0.01 0.01 0.01 0.01 0.01 0.00 0.00 0.00 0.00 0.00 0.00 0.00 0.00 0.00 0.00 0.00 0.00 0.00 0.00 0.00 0.00 0.00 0.00 0.00 0.00 0.00 0.00 0.00 0.00 0.00 0.00 0.00 0.00 0.00 0.00 0.00 0.00 0.00 0.00 0.00 0.00 0.00 0.00
0.00 0.01 0.00 0.00 0.00 0.00 0.00 0.00 0.00 0.00 0.00 0.00 0.00 0.00 0.00 0.00 0.01 0.01 0.01 0.00 0.00 0.00 0.00 0.00 0.00 0.00 0.00 0.00 0.00 0.00 0.00 0.00 0.00 0.00 0.00 0.00 0.00 0.00 0.00 0.00 0.00 0.00 0.00
0.00 0.00 0.00 0.00 0.00 0.00 0.00 0.00 0.00 0.00 0.00 0.00 0.00 0.00 0.00 0.00 0.00 0.00 0.00 0.00 0.00 0.00 0.00 0.00 0.00 0.00 0.00 0.00 0.00 0.00 0.01 0.00 0.00 0.00 0.00 0.00 0.00 0.00 0.00 0.00 0.00 0.00 0.00
0.00 0.00 0.00 0.00 0.00 0.00 0.00 0.00 0.00 0.00 0.00 0.00 0.00 0.00 0.00 0.00 0.00 0.00 0.00 0.00 0.00 0.00 0.00 0.00 0.00 0.00 0.00 0.00 0.00 0.01 0.01 0.01 0.01 0.01 0.01 0.00 0.00 0.00 0.00 0.00 0.00 0.00 0.00
0.00 0.00 0.00 0.00 0.00 0.00 0.00 0.00 0.00 0.00 0.00 0.00 0.00 0.00 0.00 0.00 0.00 0.00 0.00 0.00 0.00 0.00 0.00 0.00 0.00 0.00 0.00 0.00 0.01 0.01 0.01 0.02 0.01 0.01 0.01 0.00 0.00 0.00 0.00 0.00 0.00 0.00 0.00
0.00 0.00 0.00 0.00 0.00 0.00 0.00 0.00 0.00 0.00 0.00 0.00 0.00 0.00 0.00 0.00 0.00 0.00 0.00 0.00 0.00 0.00 0.00 0.00 0.00 0.00 0.01 0.01 0.01 0.01 0.02 0.02 0.02 0.01 0.01 0.00 0.00 0.00 0.00 0.00 0.00 0.00 0.00
0.00 0.00 0.00 0.00 0.00 0.00 0.00 0.00 0.00 0.00 0.00 0.00 0.00 0.00 0.00 0.00 0.00 0.01 0.01 0.01 0.01 0.01 0.01 0.01 0.01 0.01 0.01 0.02 0.02 0.01 0.02 0.02 0.02 0.02 0.01 0.01 0.00 0.01 0.01 0.00 0.00 0.00 0.00
MSLP
1017.54 1017.85 1018.09 1018.28 1018.43 1018.56 1018.67 1018.77 1018.87 1018.95 1019.02 1019.05 1019.06 1019.04 1019.02 1018.99 1018.98 1019.01 1019.07 1019.17 1019.32 1019.50 1019.71 1019.93 1020.17 1020.42 1020.67 1020.92 1021.15 1021.36 1021.53 1021.67 1021.77 1021.85 1021.91 1021.96 1022.02 1022.09 1022.17 1022.26 1022.36 1022.43 1022.48
1017.38 1017.69 1017.95 1018.18 1018.37 1018.54 1018.70 1018.84 1018.96 1019.06 1019.14 1019.18 1019.20 1019.19 1019.16 1019.13 1019.12 1019.12 1019.17 1019.25 1019.37 1019.53 1019.72 1019.94 1020.16 1020.40 1020.64 1020.87 1021.08 1021.26 1021.41 1021.54 1021.63 1021.70 1021.76 1021.82 1021.89 1021.97 1022.05 1022.14 1022.23 1022.29 1022.34
1017.12 1017.44 1017.74 1018.01 1018.27 1018.51 1018.73 1018.93 1019.10 1019.25 1019.36 1019.43 1019.46 1019.47 1019.45 1019.43 1019.41 1019.41 1019.43 1019.49 1019.58 1019.71 1019.86 1020.03 1020.23 1020.42 1020.62 1020.80 1020.97 1021.12 1021.24 1021.34 1021.43 1021.50 1021.57 1021.65 1021.73 1021.83 1021.93 1022.02 1022.11 1022.17 1022.22
1016.82 1017.14 1017.47 1017.80 1018.12 1018.44 1018.74 1019.01 1019.25 1019.45 1019.60 1019.71 1019.78 1019.82 1019.83 1019.82 1019.81 1019.80 1019.81 1019.85 1019.90 1019.99 1020.09 1020.21 1020.35 1020.49 1020.62 1020.74 1020.86 1020.95 1021.04 1021.11 1021.19 1021.26 1021.35 1021.45 1021.55 1021.67 1021.79 1021.90 1022.00 1022.07 1022.12
1016.50 1016.83 1017.18 1017.55 1017.94 1018.33 1018.69 1019.04 1019.34 1019.60 1019.80 1019.96 1020.07 1020.14 1020.18 1020.21 1020.21 1020.22 1020.23 1020.25 1020.28 1020.33 1020.39 1020.45 1020.53 1020.59 1020.66 1020.71 1020.76 1020.80 1020.84 1020.88 1020.94 1021.02 1021.11 1021.23 1021.36 1021.50 1021.64 1021.77 1021.89 1021.98 1022.05
1016.23 1016.55 1016.92 1017.32 1017.74 1018.18 1018.60 1019.00 1019.35 1019.66 1019.91 1020.11 1020.26 1020.38 1020.46 1020.52 1020.56 1020.59 1020.62 1020.64 1020.67 1020.69 1020.71 1020.73 1020.75 1020.75 1020.74 1020.73 1020.71 1020.69 1020.68 1020.69 1020.73 1020.80 1020.90 1021.03 1021.17 1021.33 1021.49 1021.63 1021.76 1021.87 1021.96
1016.05 1016.37 1016.73 1017.13 1017.57 1018.03 1018.48 1018.90 1019.29 1019.62 1019.91 1020.15 1020.34 1020.50 1020.63 1020.73 1020.82 1020.89 1020.94 1020.99 1021.02 1021.04 1021.04 1021.04 1021.01 1020.96 1020.90 1020.82 1020.74 1020.67 1020.61 1020.59 1020.60 1020.65 1020.74 1020.86 1021.01 1021.17 1021.33 1021.48 1021.62 1021.74 1021.84
1016.03 1016.33 1016.67 1017.06 1017.49 1017.93 1018.37 1018.80 1019.19 1019.54 1019.85 1020.11 1020.34 1020.54 1020.71 1020.86 1021.00 1021.11 1021.21 1021.28 1021.34 1021.37 1021.38 1021.36 1021.30 1021.22 1021.12 1021.00 1020.88 1020.76 1020.65 1020.59 1020.56 1020.58 1020.65 1020.75 1020.88 1021.03 1021.17 1021.32 1021.45 1021.57 1021.68
1016.21 1016.49 1016.80 1017.16 1017.55 1017.96 1018.37 1018.77 1019.15 1019.50 1019.81 1020.09 1020.34 1020.57 1020.79 1020.98 1021.16 1021.31 1021.45 1021.56 1021.64 1021.69 1021.71 1021.69 1021.63 1021.54 1021.41 1021.26 1021.10 1020.94 1020.80 1020.69 1020.62 1020.60 1020.63 1020.69 1020.79 1020.90 1021.01 1021.13 1021.24 1021.35 1021.45
1016.60 1016.86 1017.15 1017.46 1017.80 1018.16 1018.53 1018.90 1019.25 1019.58 1019.89 1020.17 1020.44 1020.69 1020.93 1021.15 1021.35 1021.54 1021.70 1021.83 1021.94 1022.01 1022.04 1022.03 1021.98 1021.88 1021.75 1021.58 1021.39 1021.20 1021.02 1020.87 1020.76 1020.69 1020.66 1020.67 1020.72 1020.78 1020.85 1020.93 1021.00 1021.08 1021.16
1017.20 1017.45 1017.71 1017.98 1018.28 1018.59 1018.91 1019.23 1019.55 1019.86 1020.15 1020.44 1020.70 1020.96 1021.20 1021.43 1021.64 1021.83 1022.00 1022.14 1022.25 1022.33 1022.37 1022.37 1022.32 1022.22 1022.08 1021.91 1021.70 1021.48 1021.27 1021.08 1020.92 1020.79 1020.71 1020.67 1020.65 1020.66 1020.68 1020.70 1020.73 1020.77 1020.81
1017.98 1018.24 1018.47 1018.71 1018.96 1019.23 1019.51 1019.79 1020.08 1020.36 1020.63 1020.90 1021.15 1021.39 1021.62 1021.84 1022.03 1022.20 1022.35 1022.48 1022.58 1022.65 1022.69 1022.68 1022.64 1022.54 1022.39 1022.20 1021.98 1021.74 1021.50 1021.26 1021.06 1020.88 1020.75 1020.64 1020.57 1020.52 1020.48 1020.46 1020.44 1020.43 1020.42
1018.91 1019.16 1019.39 1019.60 1019.83 1020.05 1020.29 1020.54 1020.79 1021.04 1021.29 1021.53 1021.75 1021.97 1022.16 1022.34 1022.49 1022.63 1022.74 1022.84 1022.91 1022.96 1022.98 1022.96 1022.90 1022.80 1022.64 1022.44 1022.20 1021.94 1021.66 1021.40 1021.15 1020.92 1020.73 1020.58 1020.45 1020.35 1020.26 1020.18 1020.12 1020.05 1020.00
1019.93 1020.19 1020.40 1020.60 1020.80 1021.00 1021.21 1021.42 1021.64 1021.85 1022.06 1022.26 1022.44 1022.60 1022.75 1022.87 1022.97 1023.05 1023.12 1023.17 1023.21 1023.22 1023.22 1023.18 1023.11 1022.99 1022.82 1022.60 1022.34 1022.05 1021.75 1021.45 1021.16 1020.89 1020.66 1020.45 1020.28 1020.13 1020.00 1019.87 1019.76 1019.65 1019.55
1020.99 1021.24 1021.44 1021.63 1021.80 1021.98 1022.16 1022.33 1022.51 1022.68 1022.84 1022.99 1023.12 1023.22 1023.30 1023.36 1023.40 1023.42 1023.44 1023.44 1023.43 1023.42 1023.39 1023.33 1023.23 1023.10 1022.91 1022.67 1022.39 1022.08 1021.74 1021.41 1021.08 1020.78 1020.50 1020.26 1020.04 1019.85 1019.68 1019.52 1019.36 1019.21 1019.07
1022.03 1022.26 1022.45 1022.61 1022.77 1022.92 1023.06 1023.20 1023.34 1023.46 1023.56 1023.65 1023.70 1023.74 1023.75 1023.74 1023.72 1023.69 1023.65 1023.61 1023.57 1023.53 1023.47 1023.40 1023.28 1023.13 1022.92 1022.66 1022.36 1022.02 1021.66 1021.29 1020.93 1020.59 1020.28 1019.99 1019.74 1019.51 1019.30 1019.11 1018.92 1018.74 1018.57
1023.00 1023.20 1023.36 1023.50 1023.63 1023.74 1023.85 1023.95 1024.04 1024.10 1024.14 1024.16 1024.14 1024.11 1024.05 1023.98 1023.90 1023.82 1023.74 1023.67 1023.61 1023.55 1023.48 1023.38 1023.26 1023.08 1022.86 1022.58 1022.25 1021.88 1021.49 1021.09 1020.70 1020.33 1019.98 1019.66 1019.37 1019.11 1018.86 1018.64 1018.42 1018.22 1018.02
1023.86 1024.01 1024.13 1024.24 1024.34 1024.43 1024.50 1024.55 1024.58 1024.59 1024.56 1024.51 1024.43 1024.32 1024.20 1024.07 1023.94 1023.82 1023.72 1023.63 1023.55 1023.48 1023.40 1023.29 1023.15 1022.97 1022.72 1022.42 1022.07 1021.68 1021.27 1020.84 1020.42 1020.01 1019.63 1019.28 1018.95 1018.65 1018.38 1018.12 1017.88 1017.66 1017.45
1024.57 1024.67 1024.75 1024.83 1024.89 1024.95 1024.99 1025.00 1024.98 1024.93 1024.84 1024.72 1024.58 1024.41 1024.23 1024.05 1023.89 1023.74 1023.61 1023.51 1023.42 1023.33 1023.24 1023.13 1022.98 1022.77 1022.51 1022.20 1021.83 1021.42 1020.98 1020.53 1020.09 1019.65 1019.24 1018.86 1018.50 1018.17 1017.87 1017.58 1017.32 1017.08 1016.86
1025.12 1025.17 1025.21 1025.26 1025.30 1025.33 1025.33 1025.31 1025.25 1025.16 1025.02 1024.84 1024.64 1024.42 1024.20 1023.98 1023.77 1023.60 1023.45 1023.33 1023.22 1023.13 1023.02 1022.89 1022.72 1022.50 1022.23 1021.90 1021.52 1021.09 1020.65 1020.18 1019.72 1019.28 1018.84 1018.44 1018.05 1017.69 1017.35 1017.04 1016.76 1016.50 1016.27
1025.53 1025.53 1025.54 1025.56 1025.58 1025.59 1025.58 1025.53 1025.44 1025.31 1025.13 1024.92 1024.67 1024.41 1024.14 1023.89 1023.65 1023.45 1023.27 1023.12 1022.99 1022.87 1022.74 1022.59 1022.40 1022.16 1021.88 1021.53 1021.15 1020.72 1020.27 1019.81 1019.35 1018.89 1018.45 1018.03 1017.62 1017.24 1016.88 1016.54 1016.24 1015.96 1015.72
1025.81 1025.78 1025.77 1025.78 1025.79 1025.79 1025.76 1025.70 1025.59 1025.44 1025.23 1024.98 1024.71 1024.41 1024.11 1023.82 1023.55 1023.31 1023.09 1022.91 1022.74 1022.59 1022.42 1022.24 1022.02 1021.77 1021.46 1021.12 1020.73 1020.32 1019.88 1019.43 1018.98 1018.54 1018.10 1017.67 1017.25 1016.85 1016.47 1016.12 1015.79 1015.49 1015.23
1026.01 1025.97 1025.96 1025.96 1025.96 1025.96 1025.92 1025.85 1025.72 1025.55 1025.33 1025.06 1024.76 1024.44 1024.11 1023.78 1023.47 1023.19 1022.93 1022.70 1022.49 1022.28 1022.08 1021.85 1021.61 1021.33 1021.02 1020.68 1020.31 1019.91 1019.50 1019.08 1018.65 1018.23 1017.80 1017.38 1016.97 1016.56 1016.16 1015.79 1015.43 1015.11 1014.82
1026.19 1026.16 1026.15 1026.15 1026.15 1026.13 1026.08 1026.00 1025.86 1025.67 1025.43 1025.15 1024.82 1024.48 1024.12 1023.76 1023.41 1023.08 1022.78 1022.49 1022.23 1021.97 1021.72 1021.46 1021.19 1020.90 1020.59 1020.25 1019.90 1019.53 1019.16 1018.77 1018.38 1017.98 1017.58 1017.17 1016.76 1016.36 1015.95 1015.56 1015.18 1014.83 1014.51
1026.40 1026.38 1026.38 1026.37 1026.36 1026.33 1026.27 1026.16 1026.00 1025.79 1025.53 1025.22 1024.88 1024.51 1024.12 1023.73 1023.35 1022.98 1022.62 1022.29 1021.97 1021.67 1021.37 1021.09 1020.79 1020.49 1020.19 1019.87 1019.55 1019.21 1018.87 1018.52 1018.17 1017.80 1017.43 1017.04 1016.64 1016.23 1015.82 1015.41 1015.01 1014.63 1014.27
1026.68 1026.67 1026.67 1026.66 1026.62 1026.56 1026.46 1026.32 1026.12 1025.88 1025.60 1025.26 1024.90 1024.51 1024.10 1023.68 1023.26 1022.85 1022.46 1022.08 1021.72 1021.38 1021.06 1020.75 1020.45 1020.15 1019.85 1019.55 1019.26 1018.95 1018.65 1018.33 1018.01 1017.67 1017.32 1016.95 1016.56 1016.15 1015.74 1015.32 1014.90 1014.49 1014.10
Thickness
5733 5730 5727 5724 5722 5719 5717 5715 5713 5711 5709 5708 5707 5706 5705 5703 5702 5700 5698 5696 5695 5693 5691 5689 5688 5686 5684 5683 5681 5680 5678 5676 5675 5674 5672 5671 5670 5669 5668 5668 5667 5667 5666
5731 5728 5725 5722 5720 5718 5715 5713 5710 5708 5707 5705 5703 5702 5701 5700 5698 5697 5695 5693 5691 5690 5688 5686 5684 5682 5680 5678 5676 5675 5673 5671 5670 5668 5667 5665 5664 5663 5662 5661 5661 5660 5659
5730 5727 5723 5720 5718 5716 5713 5710 5707 5705 5703 5702 5700 5698 5696 5695 5694 5692 5691 5689 5687 5685 5683 5682 5680 5678 5676 5674 5672 5670 5668 5666 5664 5662 5660 5658 5657 5655 5654 5653 5653 5652 5652
5728 5724 5721 5718 5715 5712 5709 5706 5703 5700 5698 5696 5694 5693 5692 5690 5689 5688 5686 5684 5682 5680 5678 5677 5675 5673 5671 5668 5666 5664 5661 5660 5658 5656 5654 5652 5650 5648 5647 5645 5644 5643 5643
5724 5721 5717 5714 5711 5707 5704 5702 5698 5695 5692 5689 5688 5686 5685 5684 5683 5682 5680 5678 5677 5675 5673 5670 5668 5666 5664 5662 5659 5657 5655 5652 5650 5648 5646 5644 5642 5640 5638 5636 5635 5634 5633
5720 5716 5712 5708 5705 5702 5698 5696 5692 5689 5686 5683 5682 5679 5677 5676 5675 5674 5673 5671 5669 5667 5665 5663 5661 5659 5657 5654 5652 5649 5647 5645 5643 5640 5638 5636 5633 5631 5629 5627 5626 5624 5623
5714 5711 5707 5703 5699 5695 5692 5689 5686 5681 5677 5676 5673 5669 5668 5667 5666 5664 5663 5662 5660 5659 5657 5654 5652 5650 5648 5646 5644 5641 5639 5637 5634 5632 5629 5627 5624 5621 5619 5617 5616 5614 5613
5706 5702 5699 5695 5692 5688 5684 5681 5678 5673 5670 5667 5665 5661 5658 5657 5656 5655 5653 5652 5650 5649 5647 5644 5642 5640 5638 5636 5634 5632 5630 5628 5625 5623 5620 5616 5614 5611 5608 5606 5604 5603 5602
5696 5693 5690 5686 5683 5680 5677 5673 5671 5667 5662 5658 5656 5654 5650 5649 5646 5643 5641 5640 5638 5637 5635 5633 5631 5629 5627 5625 5623 5621 5618 5616 5614 5611 5609 5605 5602 5599 5597 5595 5592 5591 5589
5687 5684 5681 5677 5673 5670 5667 5664 5661 5658 5654 5649 5645 5641 5640 5639 5636 5633 5630 5627 5625 5623 5621 5620 5617 5616 5614 5612 5610 5608 5605 5603 5601 5599 5596 5593 5589 5586 5584 5581 5579 5577 5576
5674 5672 5669 5665 5662 5658 5655 5651 5648 5645 5642 5638 5634 5630 5628 5625 5623 5622 5618 5614 5611 5609 5607 5605 5603 5601 5599 5597 5595 5593 5591 5588 5586 5583 5581 5578 5575 5572 5569 5567 5565 5563 5562
5660 5659 5656 5652 5648 5645 5641 5638 5635 5631 5627 5624 5621 5618 5615 5612 5609 5606 5603 5599 5596 5593 5590 5588 5587 5585 5582 5580 5578 5576 5574 5572 5569 5567 5564 5562 5559 5557 5555 5552 5550 5548 5547
5645 5642 5642 5639 5634 5630 5626 5623 5620 5616 5613 5610 5607 5603 5600 5596 5593 5590 5587 5583 5580 5577 5574 5571 5569 5567 5564 5562 5560 5558 5557 5554 5552 5550 5548 5545 5543 5541 5538 5536 5534 5533 5532
5631 5628 5627 5624 5619 5615 5612 5609 5605 5601 5597 5594 5591 5587 5584 5580 5577 5574 5570 5567 5564 5561 5558 5554 5551 5548 5546 5544 5542 5540 5539 5537 5535 5533 5531 5529 5526 5524 5522 5520 5519 5517 5516
5618 5614 5612 5607 5603 5599 5596 5593 5589 5584 5581 5577 5573 5570 5566 5562 5559 5556 5552 5549 5546 5544 5541 5536 5533 5530 5527 5526 5524 5523 5521 5520 5518 5516 5514 5512 5510 5508 5507 5505 5504 5503 5502
5602 5598 5595 5590 5586 5583 5579 5576 5572 5567 5564 5560 5555 5551 5547 5544 5540 5537 5533 5529 5525 5523 5520 5517 5513 5511 5509 5508 5507 5506 5504 5503 5501 5500 5498 5497 5495 5493 5492 5491 5490 5490 5489
5585 5581 5578 5574 5569 5566 5562 5559 5554 5550 5546 5542 5538 5534 5530 5526 5522 5518 5514 5510 5506 5502 5500 5498 5495 5493 5491 5491 5490 5489 5488 5487 5486 5485 5484 5482 5481 5480 5479 5478 5477 5477 5476
5569 5565 5560 5556 5552 5548 5544 5541 5537 5532 5528 5524 5520 5516 5512 5509 5505 5501 5496 5492 5488 5483 5481 5480 5478 5476 5475 5474 5474 5473 5472 5472 5471 5471 5470 5469 5468 5467 5467 5466 5465 5464 5463
5552 5548 5543 5539 5535 5531 5527 5523 5519 5514 5510 5506 5502 5498 5495 5491 5488 5484 5480 5476 5472 5468 5464 5462 5461 5459 5459 5458 5459 5458 5457 5456 5456 5456 5456 5456 5455 5455 5454 5454 5454 5453 5453
5535 5531 5526 5522 5518 5514 5510 5505 5501 5497 5493 5488 5485 5482 5479 5476 5472 5468 5465 5461 5457 5454 5450 5447 5446 5445 5444 5444 5443 5444 5445 5443 5443 5443 5444 5444 5444 5444 5445 5445 5445 5445 5445
5520 5516 5511 5507 5503 5498 5493 5488 5484 5480 5475 5471 5468 5465 5463 5461 5458 5455 5452 5448 5444 5441 5438 5436 5435 5434 5434 5433 5432 5431 5431 5432 5433 5434 5434 5435 5436 5437 5438 5439 5439 5439 5438
5505 5500 5496 5492 5487 5482 5477 5473 5468 5463 5459 5455 5452 5450 5448 5446 5444 5441 5438 5436 5434 5431 5429 5426 5425 5424 5425 5424 5422 5421 5422 5424 5427 5428 5426 5429 5430 5432 5433 5433 5433 5433 5432
5490 5485 5481 5477 5472 5467 5462 5458 5453 5448 5444 5440 5437 5435 5434 5433 5430 5428 5427 5426 5425 5423 5421 5419 5418 5418 5419 5419 5417 5417 5418 5418 5420 5422 5421 5424 5426 5427 5429 5429 5429 5428 5428
5476 5472 5467 5463 5458 5453 5448 5443 5439 5435 5431 5428 5426 5424 5423 5422 5421 5419 5418 5419 5419 5419 5417 5416 5415 5415 5415 5415 5414 5414 5414 5415 5416 5418 5417 5418 5422 5423 5425 5425 5425 5424 5423
5463 5459 5454 5450 5445 5439 5435 5430 5426 5422 5420 5418 5416 5415 5415 5414 5414 5412 5413 5413 5414 5416 5416 5415 5414 5414 5415 5414 5413 5413 5413 5413 5415 5417 5415 5414 5417 5418 5420 5421 5421 5420 5419
5452 5448 5443 5438 5433 5428 5423 5419 5416 5412 5410 5409 5409 5410 5409 5408 5409 5409 5409 5409 5410 5413 5413 5414 5414 5415 5415 5415 5414 5412 5412 5411 5411 5413 5413 5411 5412 5412 5415 5416 5416 5415 5414